sat.trackr.live / text

‹ back to catalog

STARLINK-6247

NORAD 57086 · 2023-088AQ

PAYLOAD ACTIVE UNKNOWN

§ Identity

Operator
Country
US
Launch date
2023-06-22
Launch site
AFWTR
Launch vehicle
Mass (kg)
RCS (m²)

Purposes: comms

External: N2YO · Heavens-Above · Gunter

§ Orbital elements

Epoch: 2026-05-25T00:14:21.554880Z

Period
94.27 min
Inclination
43.0048°
Eccentricity
0.0001234
Mean motion
15.27579577 rev/d
Perigee alt
482.2 km
Apogee alt
483.9 km
Semi-major
6,861.2 km
B*
3.6357e-5
RAAN
25.0127°
Arg perigee
264.3135°
Mean anomaly
95.7576°
Rev number
16,217

§ Raw data

STARLINK-62471 57086U 23088AQ  26145.00997170  .00000738  00000+0  36357-4 0  99932 57086  43.0048  25.0127 0001234 264.3135  95.7576 15.27579577162179

JSON: /api/v1/satellites/57086 · /tle

For live sub-satellite position, see the globe view (requires WebGL).

§ Visibility from observer

Set your observer location to see the next 7 days of passes ≥ 10°. The values pass through the URL so the page stays shareable.

No JS? Fill the form by hand. The geolocation button needs JavaScript.